{"data":{"norad_id":43171,"epoch":"2026-05-25T02:37:39.420192Z","epoch_age_seconds":62431,"freshness":"FRESH","line1":"1 43171U 18011C   26145.10948403  .00002456  00000+0  18299-3 0  9992","line2":"2 43171  34.9957 291.3607 0000907 153.2621 206.8134 15.02587014454740","mean_motion":15.02587014,"eccentricity":9.07e-5,"inclination_deg":34.9957,"raan_deg":291.3607,"arg_perigee_deg":153.2621,"mean_anomaly_deg":206.8134,"bstar":0.00018299,"rev_number":45474,"period_min":95.834716165063,"perigee_km":558.2933252643,"apogee_km":559.55170786061,"semimajor_km":6937.0595165625,"source":"CELESTRAK","updated_at":"2026-05-25T13:37:55.787363Z"}}